Location: Powder Track
(41.8531°N, 72.3584°W)
Time: 12:33:17
(UTC+00:00)

Courier 1B Rocket - All Passes

Search period start: 02 August 2021 00:00
Search period end: 12 August 2021 00:00
Orbit: 920 x 1202 km, 28.2° (Epoch: 01 August)

Date Brightness Start Highest point End Pass type
(mag) Time Alt. Az. Time Alt. Az. Time Alt. Az.
02 Aug - 05:36:56 10° SSW 05:41:14 18° SSE 05:45:24 10° SE visible
02 Aug - 07:28:37 10° SW 07:33:46 24° S 07:38:43 10° SE visible
02 Aug - 09:21:48 10° WSW 09:26:14 20° SSW 09:30:35 10° SSE daylight
03 Aug - 04:36:53 10° S 04:40:27 14° SSE 04:43:55 10° SE night (unlit)
03 Aug - 06:27:47 10° SW 06:32:59 23° S 06:37:57 10° ESE visible
03 Aug - 08:20:35 10° WSW 08:25:31 22° S 08:30:17 10° SE visible
03 Aug - 10:15:16 10° SW 10:17:51 13° SSW 10:20:25 10° S daylight
04 Aug - 03:37:44 10° S 03:39:39 11° SSE 03:41:33 10° SE night (unlit)
04 Aug - 05:27:03 10° SW 05:32:10 22° S 05:37:03 10° ESE visible
04 Aug - 07:19:28 10° SW 07:24:46 24° S 07:29:48 10° SE visible
04 Aug - 09:13:17 10° SW 09:17:11 17° SSW 09:21:00 10° SSE visible
05 Aug - 04:26:32 10° SSW 04:31:20 19° SSE 04:35:56 10° ESE night (unlit)
05 Aug - 06:18:26 10° SW 06:23:57 25° S 06:29:11 10° SE visible
05 Aug - 08:11:46 10° WSW 08:16:28 20° SSW 08:21:00 10° SSE visible
06 Aug - 03:26:21 10° SSW 03:30:29 16° SSE 03:34:30 10° SE night (unlit)
06 Aug - 05:17:30 10° SW 05:23:06 25° S 05:28:25 10° ESE night (unlit)
06 Aug - 07:10:27 10° WSW 07:15:43 23° S 07:20:44 10° SE visible
06 Aug - 09:05:14 10° SW 09:08:04 13° SSW 09:10:51 10° S visible
07 Aug - 02:26:51 10° S 02:29:39 12° SSE 02:32:24 10° SE visible
07 Aug - 04:16:42 10° SW 04:22:14 23° S 04:27:30 10° ESE night (unlit)
07 Aug - 06:09:14 10° WSW 06:14:54 26° S 06:20:16 10° SE visible
07 Aug - 08:03:10 10° WSW 08:07:23 17° SSW 08:11:26 10° SSE visible
08 Aug - 03:16:06 10° SSW 03:21:20 20° SSE 03:26:22 10° ESE night (unlit)
08 Aug - 05:08:07 10° SW 05:14:01 27° S 05:19:37 10° SE night (unlit)
08 Aug - 07:01:34 10° WSW 07:06:38 21° SSW 07:11:28 10° SSE visible
09 Aug - 02:15:50 10° SSW 02:20:26 17° SSE 02:24:55 10° ESE visible
09 Aug - 04:07:08 10° SW 04:13:07 26° S 04:18:49 10° ESE night (unlit)
09 Aug - 06:00:10 10° WSW 06:05:49 25° S 06:11:10 10° SE night (unlit)
09 Aug - 07:54:58 10° SW 07:58:14 14° SSW 08:01:22 10° S visible
10 Aug - 01:16:13 10° S 01:19:33 13° SSE 01:22:51 10° SE visible
10 Aug - 03:06:18 10° SW 03:12:11 24° S 03:17:50 10° ESE visible
10 Aug - 04:58:55 10° WSW 05:04:57 27° S 05:10:39 10° SE night (unlit)
10 Aug - 06:52:54 10° WSW 06:57:30 18° SSW 07:01:54 10° SSE visible
11 Aug - 02:05:42 10° SSW 02:11:14 21° SSE 02:16:38 10° ESE visible
11 Aug - 03:57:46 10° SW 04:04:00 28° S 04:09:57 10° SE visible
11 Aug - 05:51:15 10° WSW 05:56:42 22° SSW 06:01:52 10° SE night (unlit)
